EHI
0 0 0 0 0 0 0 0 0 0 0 0 0 0 0 0 0 0 0 0 0 0 0 0 0 0 0 0 0 0 0 0 0 0 0 0 0 0 0 0 0 0 0 0
0 0 0 0 0 0 0 0 0 0 0 0 0 0 0 0 0 0 0 0 0 0 0 0 0 0 0 0 0 0 0 0 0 0 0 0 0 0 0 0 0 0 0 0
0 0 0 0 0 0 0 0 0 0 0 0 0 0 0 0 0 0 0 0 0 0 0 0 0 0 0 0 0 0 0 0 0 0 0 0 0 0 0 0 0 0 0 0
0 0 0 0 0 0 0 0 0 0 0 0 0 0 0 0 0 0 0 0 0 0 0 0 0 0 0 0 0 0 0 0 0 0 0 0 0 0 0 0 0 0 0 0
0 0 0 0 0 0 0 0 0 0 0 0 0 0 0 0 0 0 0 0 0 0 0 0 0 0 0 0 0 0 0 0 0 0 0 0 0 0 0 0 0 0 0 0
0 0 0 0 0 0 0 0 0 0 0 0 0 0 0 0 0 0 0 0 0 0 0 0 0 0 0 0 0 0 0 0 0 0 0 0 0 0 0 0 0 0 0 0
0 0 0 0 0 0 0 0 0 0 0 0 0 0 0 0 0 0 0 0 0 0 0 0 0 0 0 0 0 0 0 0 0 0 0 0 0 0 0 0 0 0 0 0
0 0 0 0 0 0 0 0 0 0 0 0 0 0 0 0 0 0 0 0 0 0 0 0 0 0 0 0 0 0 0 0 0 0 0 0 0 0 0 0 0 0 0 0
0 0 0 0 0 0 0 0 0 0 0 0 0 0 0 0 0 0 0 0 0 0 0 0 0 0 0 0 0 0 0 0 0 0 0 0 0 0 0 0 0 0 0 0
0 0 0 0 0 0 0 0 0 0 0 0 0 0 0 0 0 0 0 0 0 0 0 0 0 0 0 0 0 0 0 0 0 0 0 0 0 0 0 0 0 0 0 0
0 0 0 0 0 0 0 0 0 0 0 0 0 0 0 0 0 0 0 0 0 0 0 0 0 0 0 0 0 0 0 0 0 0 0 0 0 0 0 0 0 0 0 0
0 0 0 0 0 0 0 0 0 0 0 0 0 0 0 0 0 0 0 0 0 0 0 0 0 0 0 0 0 0 0 0 0 0 0 0 0 0 0 0 0 0 0 0
0 0 0 0 0 0 0 0 0 0 0 0 0 0 0 0 0 0 0 0 0 0 0 0 0 0 0 0 0 0 0 0 0 0 0 0 0 0 0 0 0 0 0 0
0 0 0 0 0 0 0 0 0 0 0 0 0 0 0 0 0 0 0 0 0 0 0 0 0 0 0 0 0 0 0 0 0 0 0 0 0 0 0 0 0 0 0 0
0 0 0 0 0 0 0 0 0 0 0 0 0 0 0 0 0 0 0 0 0 0 0 0 0 0 0 0 0 0 0 0 0 0 0 0 0 0 0 0 0 0 0 0
0 0 0 0 0 0 0 0 0 0 0 0 0 0 0 0 0 0 0 0 0 0 0 0 0 0 0 0 0 0 0 0 0 0 0 0 0 0 0 0 0 0 0 0
0 0 0 0 0 0 0 0 0 0 0 0 0 0 0 0 0 0 0 0 0 0 0 0 0 0 0 0 0 0 0 0 0 0 0 0 0 0 0 0 0 0 0 0
0 0 0 0 0 0 0 0 0 0 0 0 0 0 0 0 0 0 0 0 0 0 0 0 0 0 0 0 0 0 0 0 0 0 0 0 0 0 0 0 0 0 0 0
0 0 0 0 0 0 0 0 0 0 0 0 0 0 0 0 0 0 0 0 0 0 0 0 0 0 0 0 0 0 0 0 0 0 0 0 0 0 0 0 0 0 0 0
0 0 0 0 0 0 0 0 0 0 0 0 0 0 0 0 0 0 0 0 0 0 0 0 0 0 0 0 0 0 0 0 0 0 0 0 0 0 0 0 0 0 0 0
0 0 0 0 0 0 0 0 0 0 0 0 0 0 0 0 0 0 0 0 0 0 0 0 0 0 0 0 0 0 0 0 0 0 0 0 0 0 0 0 0 0 0 0
0 0 0 0 0 0 0 0 0 0 0 0 0 0 0 0 0 0 0 0 0 0 0 0 0 0 0 0 0 0 0 0 0 0 0 0 0 0 0 0 0 0 0 0
0 0 0 0 0 0 0 0 0 0 0 0 0 0 0 0 0 0 0 0 0 0 0 0 0 0 0 0 0 0 0 0 0 0 0 0 0 0 0 0 0 0 0 0
0 0 0 0 0 0 0 0 0 0 0 0 0 0 0 0 0 0 0 0 0 0 0 0 0 0 0 0 0 0 0 0 0 0 0 0 0 0 0 0 0 0 0 0
0 0 0 0 0 0 0 0 0 0 0 0 0 0 0 0 0 0 0 0 0 0 0 0 0 0 0 0 0 0 0 0 0 0 0 0 0 0 0 0 0 0 0 0
0 0 0 0 0 0 0 0 0 0 0 0 0 0 0 0 0 0 0 0 0 0 0 0 0 0 0 0 0 0 0 0 0 0 0 0 0 0 0 0 0 0 0 0
0 0 0 0 0 0 0 0 0 0 0 0 0 0 0 0 0 0 0 0 0 0 0 0 0 0 0 0 0 0 0 0 0 0 0 0 0 0 0 0 0 0 0 0
Wind_Speed
0 1 2 4 6 5 4 1 2 3 3 5 5 5 6 6 6 7 6 6 6 6 6 6 6 6 5 5 4 4 4 3 3 3 2 2 2 2 3 3 3 3 3 3
2 1 2 5 7 5 3 2 1 2 4 5 5 4 5 6 6 7 7 6 6 6 6 6 6 6 6 5 5 4 4 3 3 3 3 3 3 2 2 3 3 3 3 4
2 3 3 4 4 3 2 3 1 2 4 5 6 7 6 6 6 6 6 6 6 6 6 6 6 5 5 5 5 4 4 3 3 3 3 3 3 2 2 3 2 3 3 3
1 4 1 3 1 2 2 3 2 3 4 5 5 6 5 5 5 6 6 6 6 5 6 6 5 5 5 5 5 4 4 4 4 3 3 3 3 2 2 2 2 3 3 3
1 0 3 3 3 3 2 4 3 4 7 7 7 5 4 4 4 5 5 5 5 4 5 5 5 5 5 5 5 5 5 5 4 4 3 3 3 3 2 2 2 2 2 3
2 1 2 4 5 5 0 3 4 5 7 7 7 5 5 6 6 6 5 4 4 4 4 4 5 5 4 4 5 5 6 5 5 4 3 3 3 3 2 1 1 1 1 1
1 1 4 4 7 3 2 4 7 6 6 6 4 5 7 8 7 5 6 5 4 3 4 4 5 4 5 5 5 6 6 5 5 4 3 3 2 2 1 1 0 0 0 0
1 1 5 4 3 1 4 5 6 6 6 6 6 7 7 7 7 7 7 7 5 4 4 4 4 4 5 6 6 6 5 5 5 4 3 3 1 1 1 1 1 0 1 0
3 4 3 2 2 3 3 4 5 5 6 6 7 7 8 7 7 6 7 6 5 4 5 4 4 4 5 6 6 6 5 5 5 5 4 3 1 1 1 1 1 1 1 1
2 4 4 4 3 4 4 4 6 6 6 6 6 7 8 7 7 6 6 6 5 5 5 6 5 5 5 5 5 5 5 5 5 5 4 3 2 1 1 0 0 1 1 1
3 5 5 4 4 5 5 6 6 6 5 5 6 7 7 6 7 6 7 6 5 4 5 6 6 6 5 5 5 5 5 5 5 4 4 3 3 2 2 1 1 1 1 1
4 4 4 6 5 5 6 7 7 7 7 6 6 6 6 6 6 6 6 5 5 5 5 5 6 6 6 5 5 4 4 5 4 4 3 3 3 3 5 3 4 3 2 1
5 5 5 6 6 5 5 6 6 6 6 7 6 5 6 5 5 5 5 6 5 5 5 5 5 6 6 6 5 4 4 4 3 3 3 3 3 2 3 4 5 4 4 3
4 4 4 4 5 5 5 6 5 5 5 5 5 5 5 5 5 5 5 5 5 5 5 5 5 6 6 6 5 5 4 5 4 3 3 3 3 2 2 2 3 3 4 4
4 3 4 5 5 5 5 5 5 5 6 5 5 5 5 5 6 6 5 5 5 5 5 5 6 7 6 6 6 5 4 3 3 3 3 3 3 3 2 2 2 2 3 3
5 4 3 4 5 6 6 5 5 6 6 5 5 6 5 5 5 5 5 4 5 5 6 6 6 6 6 6 6 5 4 6 5 3 3 3 3 3 2 2 2 2 2 3
3 4 4 5 6 6 5 5 5 5 5 5 5 5 5 5 5 5 5 5 4 4 5 5 6 6 6 5 5 4 3 4 6 4 3 3 3 3 2 2 2 2 2 3
4 4 4 4 5 5 5 5 5 5 5 5 5 4 4 4 5 5 5 5 5 5 4 4 5 6 6 5 4 3 3 3 3 3 3 3 3 3 2 2 3 3 3 3
3 3 4 4 4 4 4 4 4 4 5 4 4 4 3 4 4 4 5 5 5 6 6 5 9 7 6 6 6 3 3 3 3 3 3 4 3 3 2 2 3 3 3 3
3 3 3 4 4 3 4 4 4 4 4 4 3 3 4 4 4 4 4 4 3 4 5 7 6 5 5 5 7 3 3 3 3 3 3 2 3 3 3 3 3 3 3 2
4 4 4 4 4 4 4 4 3 4 4 4 3 4 4 4 4 4 4 4 4 5 6 8 5 5 5 6 7 3 3 3 3 3 3 3 3 3 3 3 3 3 3 3
4 3 4 4 4 4 4 3 3 4 4 4 4 4 4 4 5 4 3 3 4 9 7 4 4 7 8 8 3 3 3 3 3 2 2 3 3 3 3 3 3 3 3 3
3 3 4 4 3 4 4 3 3 3 3 4 4 4 4 4 3 4 5 4 4 8 7 4 8 11 11 5 3 3 3 3 3 3 3 3 3 3 3 4 4 3 3 3
3 3 3 3 2 3 4 4 4 3 3 3 4 4 4 4 3 2 3 7 10 10 6 8 12 12 10 4 3 3 3 3 3 3 3 3 3 3 3 4 4 4 4 4
3 3 3 3 3 3 4 4 4 4 3 3 4 4 3 2 3 4 4 5 8 9 6 8 11 11 6 4 4 4 3 3 3 3 3 3 3 3 4 4 4 4 4 4
2 2 2 2 2 3 3 3 3 3 3 4 4 3 3 3 3 3 4 4 6 8 6 5 5 7 4 4 4 4 4 4 4 3 3 3 4 4 4 4 5 4 4 4
2 2 2 2 2 2 2 2 3 3 3 4 5 4 4 4 3 4 4 4 4 4 4 4 4 4 4 4 4 4 4 4 3 3 3 3 3 4 4 5 4 4 4 4
Wind_Direction
174 344 42 28 11 30 62 126 197 260 289 311 334 338 340 347 350 353 353 354 355 352 350 350 349 345 342 340 340 338 334 327 316 312 302 289 274 257 245 237 233 224 219 218
320 336 41 28 6 6 17 10 309 314 310 328 330 346 350 346 346 345 341 341 344 346 346 345 340 338 338 337 331 333 331 324 322 318 311 295 282 261 246 236 231 222 220 217
303 326 8 356 341 351 11 7 344 293 289 322 334 339 335 329 330 328 326 328 331 334 332 331 330 331 331 328 328 332 332 334 330 320 309 300 295 279 258 246 232 228 224 212
327 24 331 259 302 335 328 350 5 335 323 326 316 309 305 311 316 319 323 321 322 326 327 328 330 334 334 338 340 338 334 335 332 321 310 306 301 288 270 250 228 230 224 212
81 41 283 314 338 348 305 305 341 330 325 327 326 316 314 323 320 309 311 312 315 318 318 323 332 335 340 344 345 343 337 331 325 320 312 308 302 291 278 256 237 239 224 202
91 110 268 286 307 313 243 314 343 336 322 328 342 333 316 330 328 325 324 322 322 327 334 335 335 338 344 344 342 335 326 321 320 316 308 300 288 282 278 262 251 243 231 196
126 214 270 292 310 350 90 287 321 320 313 318 311 283 299 319 324 329 330 330 331 334 340 336 336 341 342 340 331 322 323 326 328 323 311 299 289 284 269 246 208 175 220 190
122 193 270 324 16 56 262 297 316 317 319 316 305 306 315 322 328 335 338 341 348 347 340 338 340 343 339 332 326 328 331 334 335 333 328 323 329 329 344 139 145 178 180 129
194 218 259 304 258 280 298 304 309 313 313 313 312 317 324 327 330 332 336 338 342 342 335 335 338 340 333 327 333 337 340 341 340 340 344 343 1 9 16 92 148 204 191 181
274 276 284 299 308 321 318 304 304 305 307 313 313 317 323 326 331 334 336 337 340 340 337 334 334 336 331 331 336 340 341 341 342 347 349 354 357 359 2 12 213 211 216 203
275 293 312 308 310 313 318 318 318 318 316 315 315 317 320 322 328 333 335 337 340 339 333 327 330 334 339 339 339 339 341 343 342 344 345 346 354 355 336 322 290 262 226 204
249 265 266 284 299 313 316 319 321 324 327 331 324 315 319 321 325 331 333 337 339 340 337 334 337 337 339 339 340 339 341 343 343 343 345 349 353 357 2 0 357 355 352 310
256 280 267 281 297 308 309 314 320 323 318 320 323 320 321 320 325 331 333 338 339 338 337 337 340 340 341 340 338 337 336 338 339 343 346 348 350 351 351 1 10 11 14 10
279 295 292 300 303 312 313 315 320 322 320 318 318 323 325 325 329 335 333 332 333 338 341 342 344 343 342 341 341 340 339 340 340 338 341 344 345 344 345 350 353 354 0 10
298 283 275 295 308 318 323 326 331 331 331 331 330 331 333 333 331 330 330 335 340 345 346 345 345 341 341 342 344 343 343 343 340 338 341 343 344 346 348 348 347 346 355 1
306 305 302 309 315 322 327 330 327 322 324 326 328 328 326 324 325 326 333 343 344 340 337 338 337 336 338 341 342 341 341 343 344 341 342 345 345 344 345 347 348 350 350 350
310 311 313 314 314 315 315 312 308 309 313 318 318 321 326 330 332 334 337 337 333 325 325 330 330 331 335 335 335 333 333 333 338 338 337 336 335 335 335 336 337 335 336 343
262 271 278 284 295 304 311 315 314 317 315 307 316 328 333 331 326 325 328 331 333 333 331 326 327 332 333 332 332 326 323 321 323 325 327 330 329 329 331 332 332 328 328 339
293 288 293 296 295 297 302 309 312 317 320 321 317 318 318 318 320 322 326 334 337 333 331 329 334 342 332 330 335 326 320 317 321 324 324 326 332 334 332 329 326 325 329 334
315 314 313 312 314 309 308 313 318 323 324 327 328 330 331 329 328 328 331 327 317 304 310 321 329 328 326 327 332 321 317 315 318 320 321 321 322 324 324 323 322 321 321 320
312 317 321 320 319 318 315 317 321 321 326 333 330 324 320 322 324 324 326 323 323 324 326 330 333 324 323 327 331 330 327 321 318 317 318 318 317 317 316 315 314 314 312 310
304 306 309 313 317 319 322 322 318 317 324 330 328 324 325 327 328 325 309 296 310 325 332 326 323 327 330 336 341 338 333 326 320 316 315 313 312 310 309 309 307 308 307 302
291 292 299 305 306 310 320 322 318 319 320 322 323 322 319 315 319 320 319 319 320 326 331 326 327 331 336 346 343 334 326 320 315 310 308 308 306 303 302 304 303 303 301 299
295 299 301 308 319 326 321 319 321 319 314 312 313 313 313 317 317 305 295 317 328 328 330 328 333 337 344 351 335 326 316 311 307 304 305 305 303 304 304 304 304 302 297 295
302 305 314 324 322 309 304 315 324 325 322 318 316 316 313 305 302 312 318 320 324 330 331 332 335 339 344 333 328 323 317 309 307 309 308 309 307 306 302 300 300 297 293 291
303 300 294 289 288 297 307 316 320 321 323 323 323 320 318 316 310 311 315 317 319 326 329 326 327 332 332 328 326 325 323 320 320 318 309 304 303 302 302 303 303 298 294 291
306 305 307 312 310 306 305 309 310 313 316 312 310 317 321 321 320 319 318 319 322 324 322 322 325 325 325 325 322 320 318 316 312 308 305 302 300 298 299 298 296 294 294 292